Location: Toronto
(43.6672°N, 79.4170°W)
Time: 06:52:39
(UTC-04:00)

Daily predictions for brighter satellites

Satellite Brightness Start Highest point End
(mag) Time Altitude Azimuth Time Altitude Azimuth Time Altitude Azimuth
Cosmos 1151 Rocket 3.0 21:30:45 10° N 21:35:05 77° E 21:39:25 10° SSE
Cosmos 1437 3.1 21:34:03 10° S 21:37:13 48° E 21:40:24 10° NNE
USA 245 4.5 21:38:31 10° E 21:39:31 12° ENE 21:40:30 10° NE
ATLAS 2AS CENTAUR R/B 4.4 21:35:25 10° SE 21:39:33 16° ESE 21:43:49 10° ENE
COSMOS 2428 3.0 21:38:08 10° NNW 21:43:43 56° ENE 21:49:18 10° SE
Cosmos 1437 Rocket 3.5 21:40:22 10° NNW 21:44:05 51° W 21:47:49 10° S
USA 186 4.2 21:44:29 10° WSW 21:45:19 11° W 21:46:11 10° WNW
ARGOS 4.1 21:41:22 10° SE 21:46:06 32° ENE 21:50:52 10° N
ERS-1 Rocket 3.5 21:42:26 10° S 21:47:24 60° WSW 21:52:25 10° NNW
Cosmos 2219 Rocket 3.2 21:42:41 10° N 21:47:42 32° NE 21:52:42 10° ESE
Envisat 3.0 21:43:58 10° SSE 21:49:02 86° ENE 21:54:10 10° NNW
ATLAS 3B R/B 4.3 21:44:13 10° NNW 21:50:02 25° NNE 21:55:33 10° E
Cosmos 2266 Rocket 4.1 21:43:46 10° S 21:50:04 90° E 21:56:18 10° N
Cosmos 1939 Rocket 3.0 21:46:16 10° S 21:50:11 73° WSW 21:54:05 10° NNW
Cosmos 1805 Rocket 4.0 21:47:21 10° SSE 21:51:34 44° E 21:55:48 10° NNE
ERBS 4.4 21:50:24 10° SE 21:51:38 12° ESE 21:52:54 10° E
Terra 3.8 21:49:04 10° E 21:51:46 15° ENE 21:54:28 10° NNE
Cosmos 2315 Rocket 4.0 21:52:00 10° N 21:58:14 74° E 22:04:24 10° SSE
Cosmos 1726 2.8 21:57:00 10° N 22:00:35 39° ENE 22:03:46 12° SE
SL-23 DEB 4.3 21:56:33 10° WNW 22:01:56 58° SW 22:05:00 13° SE
NOSS 3-1 (C) 3.4 21:56:36 10° SSW 22:02:20 60° ESE 22:08:43 10° NE
Cosmos 2112 Rocket 4.2 21:57:33 10° NNW 22:02:46 71° WSW 22:08:01 10° S
OAO 2 Rocket 4.5 22:00:35 10° SW 22:04:52 25° SSE 22:09:07 10° ESE
Cosmos 2237 4.3 21:59:33 10° NNW 22:05:20 86° ENE 22:10:48 11° SSE
CZ-4 SHROUD 3.2 22:02:14 10° SSE 22:05:21 88° WSW 22:08:31 10° NNW
Cosmos 1937 Rocket 4.2 22:03:26 10° SSE 22:08:04 33° E 22:12:42 10° NE
H-2A R/B 3.1 22:04:06 10° S 22:08:28 47° W 22:12:50 10° NNW
Cosmos 1707 Rocket 3.6 22:04:46 10° N 22:09:07 67° E 22:13:15 11° SSE
Cosmos 1666 Rocket 3.7 22:09:57 10° S 22:14:15 57° E 22:18:37 10° NNE
Cosmos 2298 Rocket 4.1 22:09:13 10° S 22:14:27 62° ESE 22:19:43 10° NNE
Cosmos 1328 4.2 22:11:43 10° SSW 22:15:38 65° W 22:19:35 10° N
Tiangong 1 1.5 22:13:06 10° SW 22:16:02 39° SSE 22:18:55 10° E
Cosmos 2219 3.3 22:10:38 10° SSW 22:16:23 84° WNW 22:22:11 10° NNE
CZ-4 R/B 4.3 22:13:10 10° NNE 22:17:52 42° E 22:22:06 12° SSE
Meteor 1-4 Rocket 3.1 22:15:02 10° N 22:18:39 45° ENE 22:21:10 18° SE
Cosmos 2237 Rocket 3.0 22:15:30 10° NNW 22:20:51 39° ENE 22:25:15 14° ESE
Cosmos 2333 4.2 22:17:01 10° NNW 22:22:47 88° ENE 22:27:36 15° SSE
CZ-4C R/B 4.1 22:21:28 17° ESE 22:23:30 31° ENE 22:26:37 10° N
Cosmos 1271 Rocket 3.0 22:22:12 10° N 22:25:59 53° ENE 22:28:33 19° SSE
Cosmos 1470 Rocket 4.4 22:25:29 18° SE 22:28:00 31° E 22:31:49 10° NNE
Cosmos 1933 Rocket 4.5 22:26:30 18° SE 22:29:07 32° E 22:33:05 10° NNE
MetOp-B 4.4 22:24:06 10° S 22:29:25 68° WSW 22:34:47 10° NNW
CZ-4B R/B 3.5 22:24:42 10° NNE 22:30:00 77° ESE 22:35:10 10° S
Cosmos 2360 Rocket 3.7 22:26:21 10° NW 22:31:15 31° WSW 22:36:07 10° SSW
Cosmos 1745 Rocket 4.2 22:27:24 13° SSE 22:32:46 51° E 22:38:42 10° NNE
NOSS 0 Rocket 4.1 22:26:38 10° NNW 22:32:47 65° ENE 22:37:22 18° SE
Cosmos 1703 3.5 22:32:28 18° SSE 22:35:08 52° E 22:38:58 10° NNE
Iridium 2 4.1 22:33:22 21° SSE 22:35:35 44° E 22:39:17 10° NNE
SL-14 R/B 3.3 22:31:52 10° S 22:35:49 82° W 22:39:51 10° N
NOAA 11 4.2 22:32:41 16° SSE 22:37:07 82° ENE 22:42:36 10° NNW
Meteor 1-27 4.5 22:32:25 10° NNW 22:38:04 68° W 22:43:18 12° S
H-2A R/B 2.6 22:36:57 19° SE 22:40:37 49° ENE 22:45:52 10° N
Cosmos 1626 3.1 22:41:26 24° SE 22:42:49 31° E 22:46:10 10° NNE
SPOT 5 4.2 22:42:44 10° SSW 22:46:54 33° W 22:51:17 10° NNW
Delta 2 Rocket 4.4 22:46:09 10° WSW 22:48:40 19° SSW 22:48:40 19° SSW
Cosmos 1898 Rocket 3.7 22:47:24 10° SSW 22:52:34 72° WNW 22:57:48 10° NNE
YAOGAN 6 4.0 22:50:10 13° SSW 22:53:05 34° W 22:56:24 10° NNW
SPOT 1/Viking Rocket 4.0 22:48:49 14° S 22:53:06 57° W 22:58:12 10° NNW
Lacrosse 4 Rocket 3.0 22:52:05 10° N 22:55:54 27° NE 22:58:32 16° E
Cosmos 1125 Rocket 4.5 22:56:55 24° SE 22:58:44 29° E 23:03:15 10° NE
Cosmos 1300 4.5 22:57:12 10° NNW 23:00:31 27° W 23:03:48 10° SSW
Cosmos 2227 Rocket 2.2 22:55:43 13° S 23:00:40 61° ESE 23:06:16 10° NNE
Cosmos 292 Rocket 4.3 23:01:10 10° NNW 23:05:48 52° WSW 23:08:40 22° S
Cosmos 2242 Rocket 4.3 23:01:53 10° NNW 23:06:13 50° W 23:09:20 18° SSW
NOSS 3-1 (A) 3.8 23:01:01 10° SW 23:06:56 68° NW 23:13:35 10° NNE
Sich 1 4.2 23:03:44 10° SSW 23:07:56 42° WNW 23:12:08 10° N
Cosmos 1862 Rocket 3.5 23:03:42 10° N 23:08:04 77° E 23:10:02 32° SSE
CARTOSAT-1 3.5 23:08:07 31° SSE 23:10:10 82° ENE 23:14:31 10° N
COSMOS 2455 3.3 23:04:30 10° NNW 23:10:24 52° NE 23:14:03 23° ESE
Cosmos 1633 Rocket 4.3 23:08:56 10° SSW 23:13:02 39° WNW 23:17:10 10° N
Landsat 7 4.0 23:10:20 25° S 23:13:05 69° WSW 23:17:51 10° NNW
SL-16 R/B 2.8 23:09:37 10° NNW 23:15:07 47° ENE 23:18:12 24° ESE
Cosmos 1933 4.1 23:12:16 10° N 23:16:05 37° ENE 23:17:12 31° ESE
Cosmos 2333 Rocket 2.3 23:10:29 10° NNW 23:16:13 72° WSW 23:19:24 27° S
SAR-Lupe-2 3.5 23:15:11 43° SSE 23:16:14 76° ENE 23:19:50 10° N
Cosmos 1346 3.4 23:20:05 39° SW 23:20:58 61° WNW 23:23:58 10° N
FALCON 9 R/B 3.9 22:58:11 10° W 23:22:33 53° SSW 23:27:16 24° SE
Cosmos 1455 2.3 23:19:18 10° NNW 23:23:06 68° W 23:24:28 37° SSW
BREEZE-M DEB (TANK) 2.0 23:22:40 10° WNW 23:24:44 81° NNE 23:25:19 52° ESE
ARGOS 4.3 23:22:16 15° SSW 23:26:15 36° W 23:31:13 10° NNW
Cosmos 2297 Rocket 2.1 23:23:49 22° S 23:27:30 71° ESE 23:33:08 10° NNE
ERBS 2.5 23:24:31 10° SW 23:28:00 75° NW 23:31:30 10° NE
Terra 2.0 23:26:41 31° S 23:28:57 69° WSW 23:33:42 10° NNW
ATLAS 2AS CENTAUR R/B 2.9 23:21:42 10° SSW 23:29:10 75° ESE 23:37:14 10° NE
DMSP B5D2-2 4.0 23:25:42 10° NNE 23:30:57 88° WNW 23:34:06 25° SSW
Cosmos 2219 Rocket 3.1 23:26:32 10° NW 23:31:44 40° WSW 23:34:43 23° SSW
Spot 4 3.9 23:34:28 35° S 23:36:31 75° WSW 23:41:24 10° NNW
Cosmos 1869 Rocket 4.1 23:36:29 39° SE 23:37:24 44° E 23:41:40 10° NNE
Aureole 2 Rocket 4.3 23:35:17 10° NNE 23:37:34 18° ENE 23:38:00 18° ENE
IGS 5A 3.8 23:36:25 35° SSW 23:37:55 56° W 23:42:03 10° NNW
ATLAS 3B R/B 2.6 23:34:45 10° NW 23:41:51 84° NE 23:45:16 32° SE
Cosmos 1900 4.2 23:39:43 10° NNW 23:44:44 87° WSW 23:46:21 43° SSE
COS B Rocket 3.5 23:45:09 10° N 23:49:00 60° E 23:49:36 52° SE
OAO 2 Rocket 4.3 23:44:19 10° WSW 23:48:05 30° SSW 23:48:05 30° SSW
Cosmos 1869 4.2 23:45:25 10° NNW 23:49:15 42° W 23:50:34 31° SW
Tiangong 1 2.5 23:49:23 10° W 23:51:01 28° W 23:51:01 28° W
ALOS 2 4.1 23:52:44 23° E 23:53:58 26° ENE 23:57:37 10° N
